Location: Brabourne
(51.1333°N, 1.0000°E)
Time: 02:49:33
(UTC+00:00)

Cosmos 2237 Rocket - Visible Passes

Search period start: 23 October 2021 00:00
Search period end: 02 November 2021 00:00
Orbit: 833 x 851 km, 71.0° (Epoch: 22 October)

Date Brightness Start Highest point End Pass type
(mag) Time Alt. Az. Time Alt. Az. Time Alt. Az.
23 Oct 4.7 03:41:06 10° N 03:44:36 16° NNE 03:48:06 10° ENE visible
23 Oct 3.1 05:24:33 10° NNW 05:30:07 50° NE 05:35:37 10° SE visible
24 Oct 4.7 03:26:15 10° N 03:29:41 16° NNE 03:33:05 10° ENE visible
24 Oct 3.2 05:09:42 10° NNW 05:15:14 48° NE 05:20:42 10° SE visible
25 Oct 4.7 03:11:23 10° N 03:14:45 16° NNE 03:18:04 10° ENE visible
25 Oct 3.2 04:54:50 10° NNW 05:00:19 46° NE 05:05:46 10° SE visible
26 Oct 4.8 02:56:32 10° N 02:59:48 15° NNE 03:03:03 10° ENE visible
26 Oct 3.3 04:39:57 10° NNW 04:45:26 45° NE 04:50:51 10° ESE visible
27 Oct 4.8 02:41:49 10° N 02:44:52 15° NNE 02:48:02 10° ENE visible
27 Oct 3.3 04:25:06 10° NNW 04:30:32 43° NE 04:35:55 10° ESE visible
28 Oct 4.8 02:27:41 12° N 02:29:56 15° NNE 02:33:01 10° ENE visible
28 Oct 3.3 04:10:14 10° NNW 04:15:38 42° NE 04:20:59 10° ESE visible
28 Oct 2.6 05:54:24 10° NW 05:59:45 43° WSW 06:05:03 10° S visible
29 Oct 4.8 02:13:39 13° N 02:15:00 14° NNE 02:17:59 10° NE visible
29 Oct 3.4 03:55:31 11° NNW 04:00:44 40° NE 04:06:03 10° ESE visible
29 Oct 2.5 05:39:30 10° NW 05:44:54 45° WSW 05:50:14 10° S visible
30 Oct 4.8 01:59:45 14° NNE 02:00:03 14° NNE 02:02:59 10° NE visible
30 Oct 3.4 03:41:38 16° NNW 03:45:49 39° NE 03:51:07 10° ESE visible
30 Oct 2.5 05:24:36 10° NW 05:30:02 47° WSW 05:35:24 10° S visible
30 Oct 4.0 18:38:02 10° SSE 18:39:07 15° SSE 18:39:07 15° SSE visible
30 Oct 4.7 20:20:43 10° SW 20:21:03 12° SW 20:21:03 12° SW visible
31 Oct 4.9 01:46:01 13° NNE 01:46:01 13° NNE 01:47:57 10° NE visible
31 Oct 3.5 03:27:54 22° N 03:30:56 38° NE 03:36:10 10° ESE visible
31 Oct 2.4 05:09:47 10° NW 05:15:10 49° WSW 05:20:34 10° S visible
31 Oct 3.5 18:23:16 10° SSE 18:26:03 22° SE 18:26:03 22° SE visible
31 Oct 3.9 20:05:48 10° SW 20:07:58 24° SW 20:07:58 24° SW visible
01 Nov 5.1 01:32:26 11° NE 01:32:26 11° NE 01:32:55 10° NE visible
01 Nov 3.5 03:14:20 30° NNE 03:16:01 36° NE 03:21:14 10° ESE visible
01 Nov 2.3 04:56:14 18° NW 05:00:18 51° WSW 05:05:44 10° S visible
01 Nov 3.2 18:08:30 10° SSE 18:12:50 25° ESE 18:12:50 25° ESE visible
01 Nov 3.1 19:50:54 10° SW 19:54:44 43° SW 19:54:44 43° SW visible
